{"data":{"norad_id":64759,"epoch":"2026-09-20T13:46:18.910272Z","epoch_age_seconds":121542,"freshness":"FRESH","line1":"1 64759U 25147E   26263.57382998  .00022540  00000+0  67609-3 0  9993","line2":"2 64759  53.1591  53.6864 0001293 111.0712 249.0429 15.34406542 68599","mean_motion":15.34406542,"eccentricity":0.0001293,"inclination_deg":53.1591,"raan_deg":53.6864,"arg_perigee_deg":111.0712,"mean_anomaly_deg":249.0429,"bstar":0.00067609,"rev_number":6859,"period_min":93.847357957889,"perigee_km":461.79927794459,"apogee_km":463.56831420246,"semimajor_km":6840.8207960735,"source":"CELESTRAK","updated_at":"2026-09-21T09:00:35.436665Z"}}